North Canton, OH

2:58 PM EST on February 08, 2016 (GMT -0500)
Akron-Canton Regional

Weather History for KCAK - July, 2013

Change the Weather History Date:

Saturday, July 6, 2013

  Actual Average Record
Temperature  
Mean Temperature 78 °F 72 °F  
Max Temperature 86 °F 82 °F 99 °F (2012)
Min Temperature 69 °F 62 °F 43 °F (1979)
Degree Days  
Heating Degree Days 0 0  
Month to date heating degree days 0 0  
Since 1 June heating degree days 27 49  
Since 1 July heating degree days 0 0  
Cooling Degree Days 13 7  
Month to date cooling degree days 60 42  
Year to date cooling degree days 327 219  
Since 1 June cooling degree days 221 177  
Growing Degree Days 28 (Base 50)    
Moisture  
Dew Point 69 °F    
Average Humidity 78    
Maximum Humidity 97    
Minimum Humidity 59    
Precipitation  
Precipitation 0.13 in 0.12 in - ()
Month to date precipitation 1.34 0.78  
Year to date precipitation 19.51 20.34  
Snow  
Snow 0.00 in 0.00 in - ()
Month to date snowfall 0.0 0.0  
Since 1 June snowfall 0.0 0.0  
Since 1 July snowfall 0.0 0.0  
Snow Depth 0.00 in    
Sea Level Pressure  
Sea Level Pressure 30.12 in    
Wind  
Wind Speed 7 mph (SSW)    
Max Wind Speed 23 mph    
Max Gust Speed 28 mph    
Visibility 8 miles    
Events Rain , Thunderstorm    
T = Trace of Precipitation, MM = Missing Value Source: NWS Daily Summary

Daily Weather History Graph

Daily Weather History Graph

Search for Another Location

Airport or City:

Trip Planner

Search our weather history database for the weather conditions in past years. The results will help you decide how hot, cold, wet, or windy it might be!

Date:

Astronomy

Jul. 06, 2013 Rise Set
Actual Time 6:00 AM EDT 9:00 PM EDT
Civil Twilight 5:27 AM EDT 9:33 PM EDT
Nautical Twilight 4:45 AM EDT 10:15 PM EDT
Astronomical Twilight 3:56 AM EDT 11:04 PM EDT
Moon 4:45 AM EDT (7/6) 7:40 PM EDT (7/6)
Length of Visible Light 16h 05m
Length of Day
14h 59m
Waning Crescent, 2% of the Moon is Illuminated
Jul 6
Waning Crescent
Jul 8
New
Jul 15
First Quarter
Jul 22
Full
Jul 29
Last Quarter

Hourly Weather History & Observations

Time (EDT) Temp. Heat Index Dew Point Humidity Pressure Visibility Wind Dir Wind Speed Gust Speed Precip Events Conditions
12:51 AM 71.1 °F - 68.0 °F 90% 30.14 in 6.0 mi South 4.6 mph - N/A   Scattered Clouds
1:51 AM 70.0 °F - 68.0 °F 93% 30.14 in 5.0 mi South 5.8 mph - N/A   Scattered Clouds
2:51 AM 71.1 °F - 68.0 °F 90% 30.15 in 5.0 mi SSW 4.6 mph - N/A   Scattered Clouds
3:51 AM 70.0 °F - 68.0 °F 93% 30.15 in 5.0 mi SW 3.5 mph - N/A   Scattered Clouds
3:55 AM 69.8 °F - 68.0 °F 94% 30.17 in 5.0 mi SW 3.5 mph - N/A   Overcast
4:51 AM 70.0 °F - 68.0 °F 93% 30.14 in 5.0 mi SW 3.5 mph - N/A   Overcast
5:51 AM 70.0 °F - 66.9 °F 90% 30.14 in 5.0 mi South 3.5 mph - N/A   Mostly Cloudy
6:51 AM 70.0 °F - 68.0 °F 93% 30.16 in 5.0 mi SSW 4.6 mph - N/A   Overcast
7:15 AM 71.6 °F - 68.0 °F 88% 30.18 in 5.0 mi SSW 5.8 mph - N/A   Overcast
7:51 AM 72.0 °F - 69.1 °F 91% 30.16 in 6.0 mi SSW 8.1 mph - N/A   Overcast
8:03 AM 71.6 °F - 69.8 °F 94% 30.18 in 6.0 mi SSW 8.1 mph - N/A   Overcast
8:51 AM 73.0 °F - 69.1 °F 87% 30.16 in 7.0 mi SSW 6.9 mph - N/A   Overcast
9:28 AM 73.4 °F - 69.8 °F 88% 30.18 in 7.0 mi SSW 3.5 mph - 0.00 in Rain Light Rain
9:51 AM 73.9 °F - 68.0 °F 82% 30.16 in 7.0 mi SW 4.6 mph - 0.00 in   Overcast
10:25 AM 75.2 °F - 68.0 °F 78% 30.18 in 7.0 mi SW 6.9 mph - 0.00 in   Overcast
10:51 AM 75.0 °F - 68.0 °F 79% 30.16 in 8.0 mi SW 8.1 mph - 0.00 in   Overcast
11:51 AM 78.1 °F - 69.1 °F 74% 30.16 in 8.0 mi South 8.1 mph - N/A   Mostly Cloudy
12:29 PM 78.8 °F - 69.8 °F 74% 30.17 in 10.0 mi South 8.1 mph - N/A   Mostly Cloudy
12:51 PM 79.0 °F - 69.1 °F 72% 30.14 in 10.0 mi South 6.9 mph - N/A   Mostly Cloudy
1:51 PM 80.1 °F 82.9 °F 69.1 °F 69% 30.12 in 10.0 mi South 8.1 mph - N/A   Mostly Cloudy
2:51 PM 82.0 °F 85.5 °F 69.1 °F 65% 30.09 in 10.0 mi SSW 6.9 mph - 0.00 in   Mostly Cloudy
3:51 PM 84.0 °F 87.8 °F 69.1 °F 61% 30.07 in 10.0 mi SSW 8.1 mph - N/A   Mostly Cloudy
4:51 PM 84.9 °F 88.2 °F 68.0 °F 57% 30.04 in 10.0 mi South 11.5 mph - N/A   Mostly Cloudy
5:51 PM 84.9 °F 88.8 °F 69.1 °F 59% 30.03 in 10.0 mi SSW 10.4 mph - N/A   Mostly Cloudy
6:51 PM 82.0 °F 85.9 °F 70.0 °F 67% 30.03 in 10.0 mi South 9.2 mph - N/A   Scattered Clouds
7:51 PM 81.0 °F 84.1 °F 69.1 °F 67% 30.02 in 10.0 mi South 8.1 mph - N/A   Mostly Cloudy
8:13 PM 80.6 °F 84.6 °F 71.6 °F 74% 30.05 in 8.0 mi South 9.2 mph - 0.00 in Rain , Thunderstorm Light Thunderstorms and Rain
8:51 PM 73.0 °F - 69.1 °F 87% 30.05 in 10.0 mi SW 6.9 mph - 0.09 in   Mostly Cloudy
9:51 PM 73.9 °F - 70.0 °F 87% 30.07 in 10.0 mi SW 8.1 mph - 0.00 in Rain Light Rain
10:51 PM 73.9 °F - 70.0 °F 87% 30.08 in 10.0 mi SW 5.8 mph - 0.04 in   Mostly Cloudy
11:51 PM 73.0 °F - 69.1 °F 87% 30.08 in 10.0 mi SW 6.9 mph - N/A   Mostly Cloudy